Hourly Weather Roundup
Issued by NWS Central Illinois

Home | Current Version | Previous Version | Text Only | Print | Product List | Glossary On
Versions: 1 2 3 4 5 6 7 8 9 10 11 12 13 14 15 16 17 18 19 20 21 22 23 24 25 26 27 28 29 30 31 32 33 34 35 36 37 38 39 40 41 42 43 44 45 46 47 48 49 50
000
NZUS43 KILX 241810
HWRILX

AREA WEATHER ROUNDUP
NATIONAL WEATHER SERVICE, LINCOLN IL
1200 PM CST MON NOV 24 2014


CITY           SKY/WX    TMP DP  RH WIND       PRES   REMARKS
BLOOMINGTON    CLOUDY    32  30  92 W22G32    29.52R FOG     WCI  19
6HR MIN TEMP:  32; 6HR MAX TEMP:  38; 6HR PCP:  0.10;

CHAMPAIGN      CLOUDY    34  33  96 W24G35    29.55R WCI  21
6HR MIN TEMP:  34; 6HR MAX TEMP:  38; 6HR PCP:  0.02;

DECATUR        CLOUDY    35  28  75 W20G30    29.58R WCI  24
6HR MIN TEMP:  35; 6HR MAX TEMP:  40; 6HR PCP:  0.01;

FLORA          MOSUNNY   39  30  70 W20G28    29.69R WCI  30
6HR MIN TEMP:  38; 6HR MAX TEMP:  44;

GALESBURG      CLOUDY    30  27  87 W22G28    29.52R WCI  17
JACKSONVILLE   CLOUDY    35  27  70 W17G28    29.62R WCI  25
6HR MIN TEMP:  35; 6HR MAX TEMP:  37; 6HR PCP:  0.05;

LACON          CLOUDY    31  27  83 W21G30    29.50R WCI  19
6HR MIN TEMP:  31; 6HR MAX TEMP:  37; 6HR PCP:  0.09;

LAWRENCEVILLE  CLOUDY    44  33  65 W25G32    29.66R WCI  35
6HR MIN TEMP:  40; 6HR MAX TEMP:  49;

LITCHFIELD     CLOUDY    37  29  73 W22G29    29.64R WCI  25
$$


CITY           SKY/WX    TMP DP  RH WIND       PRES   REMARKS
LINCOLN        CLOUDY    34  29  80 W14G26    29.57R WCI  25
6HR MIN TEMP:  34; 6HR MAX TEMP:  37; 6HR PCP:  0.11;

MACOMB         CLOUDY    31  28  88 W26       29.58R WCI  17
MATTOON        CLOUDY    37  28  70 W22G35    29.59R WCI  26
6HR MIN TEMP:  36; 6HR MAX TEMP:  42; 6HR PCP: TRACE;

MT CARMEL AP   CLOUDY    45  34  65 W25G31    29.67R
OLNEY-NOBLE AP CLOUDY    39  30  70 SW20G25   29.68R WCI  30
PARIS          CLOUDY    37  32  85 W20G28    29.60R WCI  26
6HR MIN TEMP:  37; 6HR MAX TEMP:  46;

PEORIA         CLOUDY    33  27  78 W21G29    29.54R WCI  21
6HR MIN TEMP:  33; 6HR MAX TEMP:  37; 6HR PCP:  0.09;

PONTIAC        CLOUDY    33  31  91 W22G32    29.48R FOG     WCI  21
RANTOUL        CLOUDY    36  32  87 W25G37    29.53R WCI  23
6HR MIN TEMP:  36; 6HR MAX TEMP:  45;

ROBINSON       CLOUDY    39  33  78 W22G29    29.66R WCI  29
6HR MIN TEMP:  38; 6HR MAX TEMP:  49;

SPRINGFIELD    CLOUDY    34  34 100 W25G37    29.60R WCI  21
6HR MIN TEMP:  34; 6HR MAX TEMP:  36; 6HR PCP:  0.03;

TAYLORVILLE    CLOUDY    34  28  80 W15G25    29.61R WCI  24
$$

...REGIONAL REPORTS...


CITY           SKY/WX    TMP DP  RH WIND       PRES   REMARKS
CHICAGO O`HARE SNOW      31  29  92 SW25G33   29.30R VSB 1/2 WCI  17
KANKAKEE       CLOUDY    34  31  89 W23G36    29.46R WCI  22
MOLINE         CLOUDY    29  23  78 W26G36    29.48R WCI  14
MOUNT VERNON   CLOUDY    41  27  56 W16G24    29.71R WCI  33
PITTSFIELD     CLOUDY    35  29  77 SW15      29.64R WCI  25
QUINCY         CLOUDY    33  24  69 W20G29    29.61R WCI  21
ROCKFORD       SNOW      30  27  88 W21G29    29.34R VSB 1/2 WCI  17
$$


CITY           SKY/WX    TMP DP  RH WIND       PRES   REMARKS
BURLINGTON     CLOUDY    29  25  85 W20G26    29.56R WCI  16
CEDAR RAPIDS   FRZ RAIN  24  22  91 W24G36    29.50R FOG     WCI   8
DES MOINES     FLURRIES  27  16  63 NW25G37   29.63R WCI  12
KIRKSVILLE     CLOUDY    31  23  72 W17G25    29.66R WCI  19
OTTUMWA        CLOUDY    27  19  72 W24G30    29.59R WCI  12
ST LOUIS       CLOUDY    40  28  62 W21G32    29.68R WCI  30
$$


CITY           SKY/WX    TMP DP  RH WIND       PRES   REMARKS
TERRE HAUTE    CLOUDY    39  31  72 W17G24    29.61R WCI  30
EVANSVILLE     CLOUDY    46  35  65 SW20G25   29.71R
INDIANAPOLIS   DRIZZLE   37  34  89 SW25G33   29.55R WCI  25
LAFAYETTE      CLOUDY    36  31  82 SW23G35   29.50R WCI  24
MADISON        LGT SNOW  32  30  92 W14G23    29.23R VSB 3/4 WCI  22
MILWAUKEE      LGT RAIN  39  35  86 W15G24    29.16R WCI  31
$$





USA.gov is the U.S. government's official web portal to all federal, state and local government web resources and services.